[[{"header":{"parameterUnit":"m.s-1","parameterCategory":1,"la1":30.2991,"la2":30.254,"lo1":-89.0895,"lo2":-89.0444,"dy":0.0017,"dx":0.0017,"nx":28,"ny":28,"refTime":"2026-03-05T03:00:00:Z","depth":0,"parameterNumber":2,"parameterNumberName":"U-component_of_WINDS"},"data":[0,0,0,0,0,0,0,0,0,0,0,0,0,0,0,0,0,0,0,0,0,0,0,0,0,0,0,0,0,0,0,0,0,0,0,0,0,0,0,0,0,0,0,0,0,0,0,0,0,0,0,0,0,0,0,0,0,0,-2.8388,-2.8388,0,-2.837,-2.837,-2.837,-2.8288,-2.8286,-2.8284,-2.8282,-2.8265,-2.8267,-2.8268,0,0,0,0,0,0,0,0,0,0,0,0,0,-2.8356,-2.8357,-2.8388,-2.8388,-2.8388,-2.837,-2.837,-2.8369,-2.8288,-2.8286,-2.8284,-2.8281,-2.8265,-2.8267,-2.8268,0,0,0,0,0,0,0,0,0,0,0,0,0,-2.8357,-2.8357,-2.8388,-2.8345,-2.8341,-2.837,-2.837,-2.8369,-2.8289,-2.8286,-2.8283,-2.828,-2.8264,-2.8266,-2.8268,-2.8338,0,0,-2.8275,-2.8275,0,0,0,0,0,0,0,0,-2.8357,-2.8358,-2.8352,-2.8348,-2.8344,-2.8328,-2.8352,-2.8359,-2.829,-2.8309,-2.8282,-2.8279,-2.8289,-2.8289,-2.8292,-2.8337,-2.8337,-2.8275,-2.8276,-2.8277,-2.8277,0,0,0,0,0,0,0,-2.8357,-2.8359,-2.8381,-2.8352,-2.8347,-2.8328,-2.8325,-2.8353,-2.8315,-2.8307,-2.8301,-2.83,-2.8286,-2.829,-2.8291,-2.8336,-2.8275,-2.8276,-2.8278,-2.8278,-2.844,-2.8443,0,0,0,0,0,0,-2.8363,-2.8359,-2.8382,-2.838,-2.8343,-2.8331,-2.8327,-2.8336,-2.8315,-2.8308,-2.8302,-2.8296,-2.8288,-2.8288,-2.829,-2.837,-2.8277,-2.8279,-2.828,-2.8437,-2.8441,-2.8444,0,0,0,0,0,0,-2.8363,-2.8366,-2.8382,-2.8368,-2.8369,-2.8334,-2.8345,-2.8337,-2.8341,-2.8311,-2.8304,-2.8313,-2.8286,-2.8287,-2.8327,-2.8368,-2.828,-2.8281,-2.8433,-2.8438,-2.8442,-2.8531,0,0,0,0,0,0,-2.8362,-2.8366,-2.8391,-2.8369,-2.837,-2.8419,-2.8347,-2.8339,-2.8344,-2.8336,-2.8319,-2.8314,-2.8283,-2.8324,-2.8329,-2.8369,-2.8283,-2.8429,-2.8435,-2.8441,-2.8524,-2.8538,-2.855,0,0,0,0,0,-2.8361,-2.8417,-2.8393,-2.8396,-2.84,-2.8421,-2.8422,-2.8385,-2.8348,-2.8373,-2.8355,-2.8314,-2.8364,-2.8329,-2.8333,-2.8375,-2.8427,-2.8434,-2.8441,-2.8518,-2.8535,-2.8549,0,0,0,0,0,0,-2.8444,-2.8413,-2.8386,-2.8436,-2.8432,-2.8407,-2.8438,-2.8404,-2.8411,-2.8403,-2.8359,-2.8356,-2.8402,-2.8393,-2.8355,-2.8442,-2.8388,-2.8397,-2.8446,-2.8462,-2.8474,-2.8475,-2.8285,0,0,0,0,0,-2.8468,-2.8487,-2.8459,-2.8506,-2.8506,-2.8473,-2.848,-2.8453,-2.8447,-2.8445,-2.8429,-2.8426,-2.8441,-2.8451,-2.8463,-2.8524,-2.8519,-2.8555,-2.8568,-2.8578,-2.8585,-2.8617,-2.8633,-2.8467,-2.8467,-2.8467,0,0,-2.8517,-2.8503,-2.8517,-2.8522,-2.8516,-2.8537,-2.8472,-2.8497,-2.8512,-2.8449,-2.8485,-2.8475,-2.8468,-2.8519,-2.854,-2.8512,-2.8631,-2.8587,-2.8596,-2.8597,-2.8626,-2.8642,-2.8656,-2.8472,-2.8471,-2.847,0,0,-2.8618,-2.861,-2.8648,-2.8643,-2.8635,-2.8613,-2.8623,-2.8604,-2.8594,-2.8631,-2.8584,-2.8603,-2.8629,-2.8627,-2.8629,-2.8733,-2.8696,-2.8739,-2.8805,-2.8837,-2.885,-2.8861,-2.8898,-2.8911,-2.8746,-2.8747,-2.8747,0,-2.8681,-2.871,-2.8672,-2.87,-2.8704,-2.8649,-2.8688,-2.8686,-2.8683,-2.8687,-2.8656,-2.8689,-2.8681,-2.8731,-2.8756,-2.876,-2.877,-2.8739,-2.8851,-2.8862,-2.8872,-2.8906,-2.892,-2.8752,-2.8751,-2.8751,-2.875,0,-2.8788,-2.8809,-2.8842,-2.8839,-2.8847,-2.8881,-2.8849,-2.8862,-2.8836,-2.8818,-2.8857,-2.8846,-2.8855,-2.8865,-2.8839,-2.8912,-2.8895,-2.8859,-2.8803,-2.8893,-2.8925,-2.8938,-2.8759,-2.8757,-2.8756,-2.8754,0,0,-2.8936,-2.8915,-2.8927,-2.8926,-2.8914,-2.893,-2.8963,-2.8972,-2.8984,-2.8985,-2.9011,-2.9037,-2.9003,-2.9006,-2.898,-2.9009,-2.9092,-2.8969,-2.8968,-2.8991,-2.9171,-2.9197,-2.9213,-2.9069,-2.9071,-2.9073,-2.9171,0,-2.9031,-2.9084,-2.9052,-2.911,-2.913,-2.908,-2.9109,-2.9106,-2.9091,-2.9107,-2.9091,-2.911,-2.9065,-2.9066,-2.9092,-2.9076,-2.9127,-2.9069,-2.9092,-2.9094,-2.9093,-2.9229,-2.9256,-2.9349,-2.9184,-2.9186,-2.9187,0,-2.9148,-2.9154,-2.9214,-2.92,-2.9208,-2.9234,-2.924,-2.9256,-2.9253,-2.924,-2.9245,-2.9213,-2.9245,-2.9193,-2.9237,-2.9199,-2.9207,-2.9201,-2.9204,-2.9203,-2.9144,-2.923,-2.9378,-2.9392,-2.9206,-2.9205,-2.9203,0,-2.9249,-2.9273,-2.9312,-2.9313,-2.9298,-2.9317,-2.9312,-2.9306,-2.9314,-2.9321,-2.9326,-2.9337,-2.9342,-2.9352,-2.9325,-2.9289,-2.9373,-2.9318,-2.9363,-2.9364,-2.9381,-2.9379,-2.953,-2.939,-2.939,-2.939,-2.9389,0,-2.9357,-2.9396,-2.9357,-2.938,-2.9423,-2.9388,-2.9431,-2.9421,-2.9416,-2.9438,-2.9397,-2.9419,-2.9382,-2.9401,-2.938,-2.942,-2.9423,-2.9414,-2.9408,-2.9416,-2.9417,-2.9419,-2.9411,-2.9393,-2.9393,-2.9392,-2.9391,0,-2.9475,-2.9451,-2.949,-2.9474,-2.9471,-2.9503,-2.9489,-2.9512,-2.9496,-2.9524,-2.9529,-2.9504,-2.9524,-2.9498,-2.9516,-2.9502,-2.9556,-2.9541,-2.9557,-2.9552,-2.9598,-2.9594,-2.9754,-2.9773,-2.9622,-2.9624,-2.9625,0,-2.9545,-2.9573,-2.9561,-2.9572,-2.957,-2.9589,-2.9598,-2.9566,-2.9576,-2.9576,-2.9599,-2.9616,-2.9626,-2.9661,-2.9645,-2.9659,-2.9643,-2.9698,-2.9644,-2.9653,-2.9642,-2.964,-2.9642,-2.9708,-2.971,-2.9711,-2.9713,0,-2.967,-2.9657,-2.9671,-2.9681,-2.9693,-2.9699,-2.9703,-2.9715,-2.9682,-2.9696,-2.9716,-2.9725,-2.9744,-2.9761,-2.9771,-2.9767,-2.9735,-2.973,-2.9741,-2.9749,-2.9757,-2.9752,-2.9585,-2.9726,-2.9725,-2.9724,-2.9723,-2.9722,-2.9765,-2.9788,-2.9784,-2.9801,-2.9801,-2.9806,-2.9826,-2.9813,-2.9829,-2.9841,-2.9822,-2.9848,-2.9846,-2.9856,-2.9856,-2.9876,-2.9852,-2.9868,-2.9872,-2.9876,-2.9882,-2.9756,-2.9878,-2.9877,-2.9877,-2.9877,-2.9876,0,-2.9887,-2.9882,-2.9899,-2.9905,-2.992,-2.9889,-2.9893,-2.9906,-2.9929,-2.993,-2.9943,-2.9966,-2.9984,-2.9971,-2.9985,-3.0004,-2.999,-3.0009,-3.0006,-3.0005,-2.9903,-2.9891,-3.002,-3.002,-3.002,-3.002,-3.002,-3.002,-2.9952,-2.999,-2.9977,-3.0016,-3.0011,-3.0035,-3.004,-3.0045,-3.0046,-3.0074,-3.0088,-3.008,-3.0076,-3.009,-3.0105,-3.0101,-3.0108,-3.0132,-3.0123,-3.0027,-3.0012,-2.9999,-2.9988,-3.0134,-3.0134,-3.0223,-3.0224,-3.0224]},{"header":{"parameterUnit":"m.s-1","parameterCategory":1,"la1":30.2991,"la2":30.254,"lo1":-89.0895,"lo2":-89.0444,"dy":0.0017,"dx":0.0017,"nx":28,"ny":28,"refTime":"2026-03-05T03:00:00:Z","depth":0,"parameterNumber":3,"parameterNumberName":"V-component_of_WINDS"},"data":[0,0,0,0,0,0,0,0,0,0,0,0,0,0,0,0,0,0,0,0,0,0,0,0,0,0,0,0,0,0,0,0,0,0,0,0,0,0,0,0,0,0,0,0,0,0,0,0,0,0,0,0,0,0,0,0,0,0,0.7203,0.7204,0,0.7317,0.7319,0.732,0.7463,0.7465,0.7468,0.747,0.7585,0.7586,0.7587,0,0,0,0,0,0,0,0,0,0,0,0,0,0.7106,0.7107,0.7203,0.7204,0.7206,0.7317,0.7319,0.732,0.7463,0.7466,0.7468,0.7471,0.7584,0.7586,0.7587,0,0,0,0,0,0,0,0,0,0,0,0,0,0.7177,0.7107,0.7202,0.729,0.7299,0.7317,0.7319,0.7321,0.7462,0.7466,0.7469,0.7472,0.7584,0.7585,0.7587,0.7527,0,0,0.7591,0.7592,0,0,0,0,0,0,0,0,0.7172,0.718,0.7276,0.7284,0.7294,0.738,0.7327,0.739,0.7461,0.74,0.747,0.7474,0.7514,0.7521,0.7535,0.7532,0.7537,0.7591,0.7592,0.7593,0.7593,0,0,0,0,0,0,0,0.7167,0.7176,0.7248,0.7277,0.7288,0.7323,0.7337,0.7339,0.7436,0.7406,0.7416,0.7428,0.7519,0.7533,0.7539,0.7539,0.7591,0.7592,0.7593,0.7594,0.7494,0.7491,0,0,0,0,0,0,0.715,0.7171,0.7244,0.7252,0.7241,0.7322,0.7338,0.7349,0.7437,0.7453,0.7425,0.7434,0.7529,0.7537,0.7543,0.748,0.7593,0.7594,0.7595,0.7497,0.7493,0.7489,0,0,0,0,0,0,0.7147,0.7155,0.724,0.7214,0.7228,0.732,0.7331,0.7349,0.7363,0.7451,0.7469,0.7422,0.7532,0.7541,0.753,0.7486,0.7595,0.7596,0.7502,0.7496,0.7491,0.7352,0,0,0,0,0,0,0.7143,0.7153,0.7131,0.7213,0.7228,0.7225,0.7329,0.7349,0.7366,0.7379,0.7453,0.7468,0.7536,0.7527,0.7532,0.749,0.7597,0.7506,0.7499,0.7493,0.7361,0.7343,0.7327,0,0,0,0,0,0.714,0.7087,0.713,0.7138,0.7204,0.7222,0.7231,0.7311,0.7361,0.7341,0.7397,0.7466,0.749,0.7525,0.7531,0.7489,0.7509,0.7501,0.7493,0.7369,0.7346,0.7327,0,0,0,0,0,0,0.6997,0.7099,0.7148,0.712,0.7161,0.7246,0.7223,0.7284,0.7311,0.7323,0.7419,0.7434,0.7412,0.7449,0.7487,0.7436,0.751,0.7503,0.7413,0.7392,0.7375,0.7367,0.7598,0,0,0,0,0,0.6963,0.697,0.7058,0.7025,0.7044,0.7129,0.714,0.7197,0.7244,0.7262,0.7318,0.736,0.7378,0.7387,0.7407,0.7367,0.7385,0.7341,0.7324,0.7309,0.7302,0.7285,0.7266,0.7464,0.7464,0.7464,0,0,0.6891,0.6948,0.6946,0.6998,0.7037,0.7042,0.7143,0.7144,0.7148,0.7262,0.7256,0.7298,0.7351,0.7325,0.7317,0.7356,0.7252,0.7299,0.7287,0.7288,0.7275,0.7256,0.7239,0.7458,0.7459,0.746,0,0,0.6764,0.6807,0.6785,0.6822,0.6881,0.6938,0.6932,0.7008,0.7041,0.7036,0.7122,0.7128,0.7155,0.719,0.7212,0.7097,0.7162,0.7101,0.7013,0.6994,0.6979,0.6965,0.6926,0.691,0.7094,0.7093,0.7093,0,0.6668,0.668,0.6766,0.6762,0.6782,0.6886,0.6864,0.6896,0.6957,0.6968,0.7011,0.7049,0.7092,0.7076,0.7048,0.7061,0.7058,0.7094,0.6974,0.6962,0.695,0.6914,0.6898,0.7086,0.7087,0.7087,0.7088,0,0.656,0.6566,0.6541,0.6599,0.6616,0.6603,0.6686,0.6693,0.6749,0.6801,0.6795,0.6851,0.6885,0.6885,0.6939,0.6877,0.69,0.6956,0.7033,0.6923,0.689,0.6876,0.7075,0.7078,0.708,0.7082,0,0,0.6347,0.6453,0.6442,0.647,0.6541,0.6548,0.6539,0.6574,0.6578,0.6616,0.6612,0.6633,0.6687,0.671,0.6769,0.6752,0.666,0.6812,0.6815,0.6783,0.6596,0.6553,0.6536,0.6703,0.67,0.6698,0.6592,0,0.6234,0.6227,0.6304,0.6275,0.6283,0.6381,0.6374,0.6416,0.6465,0.6478,0.6531,0.6545,0.6614,0.663,0.6618,0.6673,0.6624,0.6682,0.67,0.6699,0.6684,0.6519,0.6474,0.6371,0.658,0.6577,0.6576,0,0.6102,0.6134,0.6106,0.618,0.6186,0.6178,0.6216,0.6227,0.6278,0.6314,0.6341,0.6408,0.6404,0.6475,0.6472,0.651,0.6522,0.655,0.6548,0.6554,0.6632,0.6521,0.634,0.6324,0.6556,0.6558,0.6559,0,0.5952,0.5988,0.5976,0.5997,0.6082,0.6074,0.6109,0.6163,0.6179,0.6211,0.6223,0.6253,0.6271,0.6293,0.6367,0.6412,0.6355,0.6432,0.6385,0.6383,0.637,0.637,0.6189,0.6375,0.6375,0.6375,0.6375,0,0.5819,0.5798,0.591,0.5903,0.5883,0.5971,0.5948,0.5993,0.604,0.6043,0.6129,0.613,0.6227,0.6238,0.6295,0.6284,0.6291,0.632,0.6336,0.6314,0.631,0.6323,0.6333,0.6371,0.6372,0.6373,0.6373,0,0.5648,0.5722,0.5716,0.5797,0.5817,0.5798,0.5868,0.5864,0.5918,0.5921,0.5927,0.601,0.6029,0.6104,0.614,0.6179,0.6149,0.6179,0.6132,0.6143,0.6092,0.6096,0.5914,0.5895,0.6091,0.6089,0.6087,0,0.5559,0.5545,0.5625,0.5634,0.5665,0.5678,0.5695,0.578,0.5794,0.5851,0.584,0.5866,0.5891,0.5915,0.5979,0.6006,0.6039,0.5973,0.6043,0.6021,0.6039,0.6039,0.6039,0.5958,0.5955,0.5953,0.5952,0,0.5393,0.543,0.5452,0.5486,0.5504,0.5534,0.557,0.5572,0.5667,0.5678,0.5698,0.5717,0.5755,0.5779,0.5817,0.5853,0.5918,0.5929,0.592,0.5897,0.5871,0.5886,0.6092,0.5933,0.5935,0.5936,0.5937,0.5938,0.5262,0.5255,0.531,0.5331,0.5367,0.5398,0.54,0.5453,0.5472,0.551,0.5559,0.5572,0.5623,0.5682,0.5713,0.5724,0.5761,0.5747,0.5744,0.574,0.5729,0.5868,0.5731,0.5732,0.5733,0.5733,0.5734,0,0.5102,0.5142,0.5161,0.5208,0.5225,0.5285,0.5327,0.5337,0.5348,0.539,0.5413,0.5436,0.546,0.5525,0.5556,0.5552,0.5583,0.5557,0.5559,0.5567,0.5694,0.5699,0.5532,0.5532,0.5532,0.5532,0.5532,0.5533,0.5021,0.5013,0.5056,0.5067,0.5108,0.5122,0.5142,0.5171,0.5205,0.5227,0.5248,0.5291,0.5342,0.5377,0.5401,0.542,0.5427,0.5392,0.542,0.5538,0.5557,0.5576,0.5582,0.5393,0.5392,0.5293,0.5292,0.5291]}]]